SCP
0 0 0 0 0 0 0 0 0 0 0 0 0 0 0 0 0 0 0 0 0 0 0 0 0 0 0 0 0 0 0 0 0 0 0 0 0 0 0 0 0 0 0
0 0 0 0 0 0 0 0 0 0 0 0 0 0 0 0 0 0 0 0 0 0 0 0 0 0 0 0 0 0 0 0 0 0 0 0 0 0 0 0 0 0 0
0 0 0 0 0 0 0 0 0 0 0 0 0 0 0 0 0 0 0 0 0 0 0 0 0 0 0 0 0 0 0 0 0 0 0 0 0 0 0 0 0 0 0
0 0 0 0 0 0 0 0 0 0 0 0 0 0 0 0 0 0 0 0 0 0 0 0 0 0 0 0 0 0 0 0 0 0 0 0 0 0 0 0 0 0 0
0 0 0 0 0 0 0 0 0 0 0 0 0 0 0 0 0 0 0 0 0 0 0 0 0 0 0 0 0 0 0 0 0 0 0 0 0 0 0 0 0 0 0
0 0 0 0 0 0 0 0 0 0 0 0 0 0 0 0 0 0 0 0 0 0 0 0 0 0 0 0 0 0 0 0 0 0 0 0 0 0 0 0 0 0 0
0 0 0 0 0 0 0 0 0 0 0 0 0 0 0 0 0 0 0 0 0 0 0 0 0 0 0 0 0 0 0 0 0 0 0 0 0 0 0 0 0 0 0
0 0 0 0 0 0 0 0 0 0 0 0 0 0 0 0 0 0 0 0 0 0 0 0 0 0 0 0 0 0 0 0 0 0 0 0 0 0 0 0 0 0 0
0 0 0 0 0 0 0 0 0 0 0 0 0 0 0 0 0 0 0 0 0 0 0 0 0 0 0 0 0 0 0 0 0 0 0 0 0 0 0 0 0 0 0
0 0 0 0 0 0 0 0 0 0 0 0 0 0 0 0 0 0 0 0 0 0 0 0 0 0 0 0 0 0 0 0 0 0 0 0 0 0 0 0 0 0 0
0 0 0 0 0 0 0 0 0 0 0 0 0 0 0 0 0 0 0 0 0 0 0 0 0 0 0 0 0 0 0 0 0 0 0 0 0 0 0 0 0 0 0
0 0 0 0 0 0 0 0 0 0 0 0 0 0 0 0 0 0 0 0 0 0 0 0 0 0 0 0 0 0 0 0 0 0 0 0 0 0 0 0 0 0 0
0 0 0 0 0 0 0 0 0 0 0 0 0 0 0 0 0 0 0 0 0 0 0 0 0 0 0 0 0 0 0 0 0 0 0 0 0 0 0 0 0 0 0
0 0 0 0 0 0 0 0 0 0 0 0 0 0 0 0 0 0 0 0 0 0 0 0 0 0 0 0 0 0 0 0 0 0 0 0 0 0 0 0 0 0 0
0 0 0 0 0 0 0 0 0 0 0 0 0 0 0 0 0 0 0 0 0 0 0 0 0 0 0 0 0 0 0 0 0 0 0 0 0 0 0 0 0 0 0
0 0 0 0 0 0 0 0 0 0 0 0 0 0 0 0 0 0 0 0 0 0 0 0 0 0 0 0 0 0 0 0 0 0 0 0 0 0 0 0 0 0 0
0 0 0 0 0 0 0 0 0 0 0 0 0 0 0 0 0 0 0 0 0 0 0 0 0 0 0 0 0 0 0 0 0 0 0 0 0 0 0 0 0 0 0
0 0 0 0 0 0 0 0 0 0 0 0 0 0 0 0 0 0 0 0 0 0 0 0 0 0 0 0 0 0 0 0 0 0 0 0 0 0 0 0 0 0 0
0 0 0 0 0 0 0 0 0 0 0 0 0 0 0 0 0 0 0 0 0 0 0 0 0 0 0 0 0 0 0 0 0 0 0 0 0 0 0 0 0 0 0
0 0 0 0 0 0 0 0 0 0 0 0 0 0 0 0 0 0 0 0 0 0 0 0 0 0 0 0 0 0 0 0 0 0 0 0 0 0 0 0 0 0 0
0 0 0 0 0 0 0 0 0 0 0 0 0 0 0 0 0 0 0 0 0 0 0 0 0 0 0 0 0 0 0 0 0 0 0 0 0 0 0 0 0 0 0
0 0 0 0 0 0 0 0 0 0 0 0 0 0 0 0 0 0 0 0 0 0 0 0 0 0 0 0 0 0 0 0 0 0 0 0 0 0 0 0 0 0 0
0 0 0 0 0 0 0 0 0 0 0 0 0 0 0 0 0 0 0 0 0 0 0 0 0 0 0 0 0 0 0 0 0 0 0 0 0 0 0 0 0 0 0
0 0 0 0 0 0 0 0 0 0 0 0 0 0 0 0 0 0 0 0 0 0 0 0 0 0 0 0 0 0 0 0 0 0 0 0 0 0 0 0 0 0 0
0 0 0 0 0 0 0 0 0 0 0 0 0 0 0 0 0 0 0 0 0 0 0 0 0 0 0 0 0 0 0 0 0 0 0 0 0 0 0 0 0 0 0
0 0 0 0 0 0 0 0 0 0 0 0 0 0 0 0 0 0 0 0 0 0 0 0 0 0 0 0 0 0 0 0 0 0 0 0 0 0 0 0 0 0 0
Wind_Speed
7 5 5 5 5 6 6 6 6 5 5 3 3 3 3 2 2 2 3 3 2 2 2 1 1 1 1 1 1 1 1 0 0 1 2 3 2 1 1 1 1 1 1
5 5 5 5 6 6 6 6 7 6 6 5 4 3 3 2 2 2 2 3 3 3 3 3 2 2 1 1 1 1 1 0 0 1 0 2 3 2 2 1 1 1 1
9 8 6 6 6 6 7 6 7 7 6 5 3 3 2 2 1 1 1 2 2 2 2 3 3 2 2 2 2 2 2 1 1 0 2 1 2 3 2 2 1 1 1
8 7 7 7 7 7 6 6 6 6 6 6 5 5 4 3 3 2 2 2 2 2 2 2 3 2 2 2 2 2 2 2 1 1 1 1 1 1 2 2 2 2 2
8 8 8 8 6 5 5 5 5 5 5 6 6 6 4 3 2 2 2 2 1 2 2 3 3 2 2 2 2 2 2 2 2 2 1 1 1 1 2 3 3 3 2
7 7 6 5 4 4 4 4 5 4 4 5 5 6 6 4 4 3 3 2 1 2 2 2 2 2 2 2 3 2 3 2 2 2 1 2 1 2 2 2 3 3 3
7 6 6 6 5 5 5 5 5 5 5 5 5 6 6 6 6 5 4 3 2 2 3 3 3 3 3 3 3 2 3 3 3 3 2 2 2 2 2 2 2 3 3
6 6 7 6 6 6 6 5 6 5 5 5 5 5 5 4 4 4 4 4 3 3 3 3 3 3 3 3 2 2 2 2 3 3 3 2 2 2 2 2 2 3 3
6 6 5 5 6 6 6 6 6 5 5 5 4 4 4 4 4 4 3 3 3 2 3 3 3 3 3 3 3 3 3 2 3 3 3 3 2 2 2 2 2 2 3
4 4 5 5 5 5 4 5 5 5 4 4 4 4 4 4 4 3 4 4 4 3 4 3 3 3 3 3 3 3 3 3 3 3 3 3 2 2 2 2 2 3 3
4 4 3 3 4 3 4 4 4 4 4 4 4 3 3 3 3 3 4 4 4 4 4 4 4 4 3 3 3 3 3 4 3 3 3 4 3 2 2 2 2 3 3
4 4 3 3 3 4 4 4 4 4 4 4 4 4 3 3 3 3 4 4 4 4 4 4 4 4 4 4 4 4 4 4 5 4 4 4 3 3 3 2 3 3 3
3 2 3 3 4 4 3 3 4 4 4 4 4 3 3 3 3 3 3 3 3 3 3 4 4 4 4 4 5 5 5 5 5 5 5 5 4 4 3 4 4 3 3
3 3 3 3 4 4 4 3 3 3 3 4 4 4 3 3 3 3 3 3 3 4 4 4 4 4 4 4 4 4 5 5 5 5 5 5 5 6 5 4 4 4 4
4 4 4 4 4 3 3 3 3 3 4 3 3 3 3 2 2 2 2 2 2 3 3 3 3 3 3 3 4 4 4 5 5 5 5 5 7 8 6 5 4 4 4
6 5 5 5 5 5 4 3 3 4 4 4 3 3 2 2 2 2 2 1 1 1 2 3 3 3 3 5 6 4 4 4 4 5 5 5 6 8 10 10 8 6 5
6 6 6 6 6 5 5 5 4 3 4 4 3 3 3 2 2 2 2 2 2 1 2 2 3 3 4 5 6 5 3 4 4 5 4 4 5 6 5 7 9 8 9
6 5 5 5 4 4 4 4 3 4 4 4 3 3 3 3 2 2 2 2 1 2 2 2 3 3 4 6 6 5 3 3 4 4 4 4 4 4 4 4 4 5 6
5 5 5 4 4 4 4 4 3 3 4 4 4 4 4 3 3 3 2 2 2 2 2 2 3 3 4 6 5 4 2 2 4 4 4 4 5 7 6 4 4 5 5
4 4 3 3 3 3 4 4 4 4 5 5 5 4 4 4 4 3 3 2 2 2 2 2 3 3 4 5 5 4 2 2 3 3 4 6 6 8 7 5 4 5 5
4 3 3 3 4 4 5 5 4 6 5 4 3 3 4 4 4 3 2 2 2 1 2 2 3 3 4 5 6 5 2 3 3 3 3 4 7 8 8 7 5 6 5
2 3 3 3 3 3 5 5 5 5 3 4 4 3 3 3 3 3 2 2 2 2 2 2 3 3 3 4 5 6 5 4 3 4 3 4 7 7 7 5 6 6 4
2 2 3 3 2 3 4 5 4 3 4 4 4 3 3 3 3 3 3 2 2 2 2 2 3 3 2 3 6 6 6 6 3 3 5 6 6 6 4 4 5 4 3
2 2 3 3 3 3 4 5 4 4 4 4 4 3 3 3 3 3 3 3 3 3 3 3 3 3 3 2 2 3 3 4 4 3 4 5 5 3 3 3 3 2 2
2 2 3 4 4 3 3 4 4 5 4 4 4 3 3 3 3 3 3 4 4 4 4 3 3 3 4 5 5 3 2 2 3 2 1 1 1 1 2 2 2 2 2
3 3 3 3 3 3 3 3 4 5 5 4 4 3 3 3 2 2 2 4 4 5 6 6 5 4 6 7 6 6 6 5 3 1 1 2 2 2 2 2 2 2 2
Wind_Direction
216 198 191 184 176 179 178 179 176 173 160 155 159 163 176 174 178 187 178 179 178 173 158 165 175 168 170 179 171 159 130 327 76 44 339 322 305 286 281 268 257 268 272
209 203 189 182 181 181 182 181 181 176 173 174 176 170 161 171 185 188 181 184 182 180 175 173 183 186 172 163 168 142 150 280 85 121 40 321 322 314 306 289 252 267 303
203 200 192 187 183 185 186 186 183 177 175 167 149 126 101 90 120 193 195 193 183 182 179 181 178 182 180 194 200 180 172 193 266 190 153 177 240 303 301 285 272 280 286
202 195 190 188 189 192 186 182 177 173 171 163 162 162 167 179 196 192 196 196 188 186 183 180 181 186 187 196 206 199 197 173 208 264 252 215 185 210 292 303 298 292 276
197 194 192 192 189 181 177 178 170 168 170 170 171 171 177 185 177 168 176 191 196 191 188 183 182 187 199 206 202 198 200 196 195 204 218 252 278 215 222 278 300 302 274
193 190 187 180 180 171 168 167 167 174 175 174 176 177 178 176 170 181 188 197 205 205 199 192 192 195 200 206 206 201 201 206 202 207 208 209 211 215 216 250 284 289 287
184 181 177 177 178 175 176 172 171 177 179 176 180 184 184 181 186 190 193 194 198 210 210 200 200 206 210 208 200 197 210 205 202 209 221 228 234 224 213 228 264 278 286
184 181 182 181 181 180 178 176 177 181 182 181 185 185 184 184 192 194 193 200 204 207 202 199 204 210 211 209 199 203 215 208 213 221 221 230 242 237 227 214 232 283 287
188 184 180 180 179 180 183 183 181 183 187 185 180 180 184 189 196 196 195 202 202 198 193 197 205 213 209 205 199 209 215 208 217 225 228 234 242 239 241 233 217 224 270
184 185 182 182 182 180 179 179 180 184 187 181 182 183 189 194 194 189 199 205 203 198 193 197 201 208 212 207 204 214 215 209 223 218 220 236 242 241 238 234 241 232 240
194 191 187 182 173 166 169 178 183 180 183 186 184 180 188 189 187 197 207 207 203 199 200 203 202 204 211 212 211 219 215 216 227 226 222 233 235 236 239 239 241 242 236
192 182 175 171 172 175 178 183 186 186 190 186 180 183 185 184 190 209 216 205 203 205 203 203 205 208 212 212 215 222 222 221 226 228 226 234 229 233 235 232 240 243 238
190 181 176 180 186 189 188 187 189 192 187 174 174 180 185 188 201 215 217 204 202 208 206 202 208 213 216 217 221 222 224 225 227 226 226 232 223 235 235 233 237 241 247
186 187 192 194 195 194 192 190 197 189 179 172 175 187 195 198 207 212 211 206 201 205 209 213 218 219 222 224 225 226 227 229 231 230 229 231 226 231 230 234 236 235 242
197 195 197 201 199 197 197 191 192 187 177 175 185 198 197 193 191 199 210 209 204 211 212 214 225 231 228 227 227 229 227 231 238 240 238 238 238 238 234 235 229 223 231
213 210 205 203 203 201 200 194 194 188 172 177 191 187 180 182 190 199 200 199 210 218 213 213 221 232 241 246 243 240 234 237 239 244 247 245 244 247 246 245 242 230 229
222 214 212 209 207 204 197 196 198 181 172 178 183 182 179 187 204 209 202 211 222 229 239 235 231 242 257 259 257 252 243 241 241 243 246 252 253 251 242 247 250 247 245
221 217 211 211 209 199 194 190 179 175 180 184 191 191 185 194 203 203 213 223 223 227 240 250 244 252 263 267 267 265 252 246 250 247 241 244 252 246 230 232 242 246 247
217 211 203 201 195 193 185 170 177 179 184 194 198 198 192 195 200 208 219 220 217 238 245 250 249 254 266 264 266 268 248 251 258 256 248 243 248 249 239 231 243 254 254
214 203 190 177 183 192 170 168 184 186 200 203 203 196 191 194 201 209 217 219 217 226 240 258 258 255 261 264 265 266 243 254 265 266 256 250 252 250 241 228 229 244 254
210 194 182 190 200 184 164 178 193 206 207 195 190 191 192 197 199 201 205 204 217 231 245 257 264 260 263 270 269 269 256 243 253 260 264 260 260 257 249 240 230 240 246
203 188 186 205 203 181 170 187 210 209 184 179 186 192 193 195 189 190 204 200 198 216 243 257 275 272 270 273 274 274 269 261 245 255 262 264 267 260 253 249 245 244 244
207 194 183 196 206 194 183 198 213 182 172 177 189 193 191 194 189 192 200 203 201 209 226 235 254 271 276 274 276 275 274 269 261 254 260 268 272 273 259 254 251 244 228
214 195 175 191 218 213 204 206 195 176 176 185 193 191 189 194 195 201 203 205 208 214 222 231 247 261 271 267 266 260 266 271 272 270 266 272 283 280 268 258 255 240 223
225 202 199 207 219 210 211 206 187 173 181 189 193 195 197 196 201 210 214 217 219 218 223 229 232 237 254 258 266 269 260 258 254 261 273 286 281 275 273 261 250 238 231
217 210 210 211 216 203 210 209 192 180 181 191 194 195 196 198 203 210 242 245 242 246 248 250 251 256 262 272 268 270 270 270 254 239 248 256 258 255 256 255 253 241 233